699  
SXUS52 KTAE 130716  
OSOTAE  
OSOTAE  
NORTH FLORIDA/SOUTH ALABAMA/SOUTHWEST GEORGIA WEATHER ROUNDUP  
NATIONAL WEATHER SERVICE TALLAHASSEE FLORIDA  
300 AM EDT SAT AUG 13 2022  
 
NOTE: "FAIR" INDICATES FEW OR NO CLOUDS BELOW 12,000 FEET WITH NO  
SIGNIFICANT WEATHER AND/OR OBSTRUCTIONS TO VISIBILITY.  
 
!FLZ017-115-028-034-025-130800   
..NORTH FLORIDA
 
 
 
CITY SKY/WX TMP DP RH WIND PRES REMARKS  
TALL INTL ARPT CLOUDY 75 74 96 E5 30.00S  
FSU LOVE BLDG N/A 75 72 88 S3 N/A  
APALACHICOLA PTCLDY 75 75 100 CALM 30.00F  
PERRY NOT AVBL  
CROSS CITY MOCLDY 74 74 99 CALM 30.02S  
JACKSONVILLE LGT RAIN 75 73 93 CALM 30.01F  

 
 
!FLZ112-006-005-002-011-130800   
..FLORIDA PANHANDLE
 
 
 
CITY SKY/WX TMP DP RH WIND PRES REMARKS  
MARIANNA MOCLDY 76 73 91 W6 29.98F  
BONIFAY NOT AVBL  
PANAMA CITY NW FAIR 75 73 93 CALM 29.98F  
TYNDALL AFB PTCLDY 77 73 88 CALM 29.98  
TYND DRONE APT NOT AVBL  
DE FUNIAK SPR FAIR 73 72 94 CALM 30.01F  
EGLIN AFB CLEAR 75 73 93 CALM 29.98S  
DESTIN PTCLDY 79 74 84 CALM 30.00S  
HURLBURT CLEAR 74 71 92 CALM 29.99S  
CRESTVIEW CLEAR 74 73 97 CALM 30.01F  
PENSACOLA CLEAR 77 74 90 CALM 30.00R  

 
 
!ALZ063-066-130800   
..SOUTH ALABAMA
 
 
 
CITY SKY/WX TMP DP RH WIND PRES REMARKS  
DOTHAN MOCLDY 76 75 97 NW7 30.03F  
OZARK CAIRNS CLEAR 74 72 94 CALM 29.99S  
FT RUCKER HELI PTCLDY 73 72 97 CALM 29.99F  
RUCKER HELI 3 FAIR 75 74 99 NW3 29.98F  
RUCKER HELI 2 FAIR 74 74 99 CALM 29.97F  
FLORALA APT CLOUDY 76 72 87 CALM 30.01F  
ANDALUSIA NOT AVBL  
TROY CLEAR 75 72 90 CALM 30.01F  
EUFALA MOCLDY 76 75 97 W3 30.00F  
MOBILE CLEAR 74 71 91 CALM 30.01S  

 
 
!GAZ120>161-130800   
..SOUTHWEST AND SOUTH CENTRAL GEORGIA
 
 
 
CITY SKY/WX TMP DP RH WIND PRES REMARKS  
THOMASVILLE MOCLDY 72 70 94 CALM 30.01F  
BAINBRIDGE PTCLDY 74 73 95 W3 30.00S  
MOODY AFB PTCLDY 73 71 95 S5 29.99S  
VALDOSTA PTCLDY 74 72 93 S3 30.01S  
MOULTRIE PTCLDY 72 72 100 CALM 30.01S  
BLAKELY PTCLDY 73 72 94 CALM 30.00F  
ALBANY MOCLDY 74 72 93 CALM 30.00F  
TIFTON N/A 73 72 94 CALM 29.99F  
FITZGERALD FAIR 74 72 95 CALM 30.00F  
CORDELE CLOUDY 75 72 91 SW3 30.01S  
AMERICUS NOT AVBL  
HOMERVILLE MOCLDY 73 71 95 CALM 30.01S  

 
 
!GMZ750-755-770-775-130800   
..COASTAL AND BUOY OBS
 
 
 
STATION/POSITION TIME TEMP WIND PRES VSBY WAVE  
AIR SEA DIR/SP/G HT/PER  
(UTC) (F) (DEG/KT/KT) (MB) (MI) (FT/S)  
KEATON BEACH 0700 75 50/ 3/ 4 1016.3F  
CEDAR KEY 0700 79 110/ 6/ 7 1017.2S  
C TOWER 0700 80 1016.4F  
APALACHICOLA BUO 0650 82 85 90/ 2/ 2 1015.1F 1/ 6  
PANAMA CITY BUOY 0650 81 110/ 2/ 4 1016.8F 2/ 5  
MOBILE BUOY 0650 81 85 160/ 4/ 8 1016.2F  
ORANGE BCH AL BU 0700 81 250/ 8/ 10 1015.3  

 
 
 
CLICK HERE TO GO TO PREVIOUS BULLETINS.

The Nexlab FL Page
The Nexlab GA Page
The Nexlab AL Page Main Text Page